Content
SEND FEEDBACK

Daily
Averages
Monthly
Summary
United States of America

UMATAC, GUAM


Home > North America > United States > Guam
Elevation: 58 meters     Latitude: 13 17N     Longitude: 144 40E

WEATHER
 
SELECT A DAY
Number of Records: 351,467;   Date Range: 1/1/95 - 10/18/14
 
SHARE

PRINT THIS DATA

[ ← Previous Day ]
WEATHER ALMANAC - 7 DECEMBER, 2013
[ Next Day → ]
[ °F ]   °C
Weather ElementAverageHighLow
Temperature26.2 °C28 °C (11:58 am)25 °C (9:08 am)
Dewpoint23.6 °C27 °C (11:53 am) (7:00 pm)
Humidity95.5 %100 % (8:53 am)83 % (5:53 am)
Barometer1011.9 hPa1013.5 hPa (9:11 am)1009.5 hPa (2:58 am)
Wind Speed16.4 km/h29.6 km/h (2:40 pm)
Wind Gust31.5 km/h (8:48 am)
Weather ElementAverage
Visibility13.7 km
Wind DirectionENE (68.1 °)

Weather ElementTotal
Precipitation3.56 mm
Cooling Degree Days8.2 (Base 18.3)
Growing Degree Days16.5 (Base 10)
Averaged from 73 records on 7 December, 2013
WEATHER CONDITIONS BREAKOUT
WIND DIRECTION BREAKOUT
WEATHER BY HOUR - 7 DECEMBER, 2013
[ °F ]   °C
Local TimeTemperatureDewpointHumidityBarometerVisibilityWind DirectionWind SpeedGust SpeedPrecipitationEventsConditions
1:58 AM25.3 °C23.5 °C90 %1009.8 hPa16.1 kmENE (60°)14.8 km/hClear
2:58 AM25.4 °C23.6 °C90 %1009.5 hPa16.1 kmENE (60°)18.5 km/hPartly Cloudy
3:58 AM25.2 °C23.3 °C89 %1009.5 hPa16.1 kmENE (60°)16.7 km/hClear
4:58 AM25.1 °C23.4 °C90 %1009.5 hPa16.1 kmENE (60°)18.5 km/hClear
5:53 AM26 °C23 °C83 %1010.5 hPa16.1 kmENE (60°)14.8 km/hMostly Cloudy
5:58 AM25.6 °C23.5 °C88 %1009.5 hPa16.1 kmENE (60°)18.5 km/hMostly Cloudy
6:03 AM26 °C24 °C89 %1010.8 hPa16.1 kmENE (60°)16.7 km/hMostly Cloudy
6:43 AM26 °C24 °C89 %1011.2 hPa16.1 kmENE (60°)14.8 km/hMostly Cloudy
6:58 AM26.1 °C23.7 °C87 %1010.5 hPa16.1 kmENE (60°)16.7 km/hMostly Cloudy
7:58 AM26.7 °C24.3 °C87 %1011.5 hPa16.1 kmENE (60°)14.8 km/hMostly Cloudy
8:13 AM27 °C24 °C84 %1012.9 hPa16.1 kmENE (60°)16.7 km/hMostly Cloudy
8:48 AM27 °C25 °C89 %1013.2 hPa11.3 kmEast (80°)27.8 km/h31.5 km/hRainLight Rain
8:53 AM26 °C26 °C100 %1013.2 hPa3.2 kmEast (80°)25.9 km/h31.5 km/hRainLight Rain
8:58 AM25.6 °C25.6 °C100 %1012.2 hPa2.4 kmENE (70°)20.4 km/h0.25 mmRainLight Rain
9:03 AM26 °C26 °C100 %1013.2 hPa3.2 kmENE (60°)16.7 km/hRainLight Rain
9:08 AM25 °C25 °C100 %1013.2 hPa9.7 kmENE (70°)16.7 km/hRainLight Rain
9:11 AM26 °C25 °C94 %1013.5 hPa16.1 kmEast (80°)16.7 km/hMostly Cloudy
9:21 AM26 °C-17.8 °C1013.2 hPa16.1 kmENE (60°)16.7 km/hScattered Clouds
9:26 AM27 °C26 °C94 %1013.2 hPa16.1 kmENE (60°)16.7 km/hMostly Cloudy
9:31 AM27 °C26 °C94 %1013.2 hPa16.1 kmENE (70°)16.7 km/hMostly Cloudy
9:36 AM26 °C26 °C100 %1013.2 hPa16.1 kmENE (70°)16.7 km/hScattered Clouds
9:45 AM26 °C26 °C100 %1013.2 hPa16.1 kmENE (60°)13 km/hRainLight Rain
9:50 AM26 °C26 °C100 %1013.5 hPa16.1 kmENE (70°)14.8 km/hLight Drizzle
9:58 AM26.1 °C26 °C99 %1012.9 hPa16.1 kmENE (70°)16.7 km/h0 mmRainRain
10:03 AM26 °C26 °C100 %1013.2 hPa16.1 kmENE (70°)16.7 km/hRainLight Rain
10:08 AM26 °C26 °C100 %1013.2 hPa16.1 kmENE (70°)13 km/hRainLight Rain
10:18 AM26 °C-17.8 °C1013.2 hPa16.1 kmEast (80°)14.8 km/hRainLight Rain
10:21 AM26 °C25 °C94 %1013.2 hPa16.1 kmENE (70°)16.7 km/hScattered Clouds
10:46 AM26 °C26 °C100 %1013.2 hPa14.5 kmENE (70°)14.8 km/hMostly Cloudy
10:47 AM26 °C26 °C100 %1013.2 hPa9.7 kmENE (60°)14.8 km/hRainLight Rain
10:58 AM25.9 °C25.7 °C99 %1012.2 hPa4.8 kmEast (80°)9.3 km/h0.76 mmRainLight Rain
11:03 AM26 °C26 °C100 %1013.2 hPa14.5 kmEast (90°)11.1 km/hRainLight Rain
11:06 AM26 °C26 °C100 %1012.9 hPa16.1 kmEast (80°)9.3 km/hMostly Cloudy
11:11 AM26 °C26 °C100 %1012.9 hPa4.8 kmENE (60°)22.2 km/hRainLight Rain
11:16 AM26 °C-17.8 °C1012.9 hPa2.9 kmENE (60°)16.7 km/hRainHeavy Rain
11:21 AM26 °C26 °C100 %1012.9 hPa4.8 kmENE (60°)13 km/hRainLight Rain
11:23 AM26 °C26 °C100 %1012.5 hPa9.7 kmENE (60°)14.8 km/hScattered Clouds
11:48 AM27 °C26 °C94 %1012.2 hPa16.1 kmNE (50°)13 km/hMostly Cloudy
11:53 AM27 °C27 °C100 %1012.2 hPa16.1 kmNNE (30°)13 km/hMostly Cloudy
11:58 AM28 °C27 °C94 %1011.2 hPa16.1 kmNE (40°)13 km/h0.76 mmMostly Cloudy
12:05 PM28 °C26 °C89 %1012.2 hPa16.1 kmENE (60°)14.8 km/hRainLight Rain
12:15 PM27 °C27 °C100 %1011.9 hPa9.7 kmEast (80°)14.8 km/hRainLight Rain
12:20 PM27 °C27 °C100 %1011.9 hPa9.7 kmEast (80°)14.8 km/hRainLight Rain
12:22 PM27 °C27 °C100 %1011.9 hPa14.5 kmEast (90°)13 km/hMostly Cloudy
12:37 PM27 °C27 °C100 %1011.5 hPa16.1 kmEast (90°)18.5 km/hMostly Cloudy
12:42 PM27 °C27 °C100 %1011.9 hPa16.1 kmEast (90°)18.5 km/hScattered Clouds
12:58 PM27.1 °C26.3 °C95 %1010.2 hPa16.1 kmEast (90°)20.4 km/h0.25 mmPartly Cloudy
1:48 PM27 °C26 °C94 %1011.2 hPa16.1 kmENE (70°)16.7 km/hMostly Cloudy
1:51 PM27 °C25 °C89 %1011.2 hPa8 kmENE (60°)13 km/hRainLight Rain
1:58 PM26.7 °C25.7 °C94 %1010.2 hPa6.4 kmENE (60°)18.5 km/h0 mmRainLight Rain
2:01 PM27 °C26 °C94 %1011.2 hPa11.3 kmENE (60°)16.7 km/hMostly Cloudy
2:11 PM27 °C26 °C94 %1010.8 hPa16.1 kmENE (60°)11.1 km/hScattered Clouds
2:20 PM27 °C26 °C94 %1010.8 hPa16.1 kmENE (70°)16.7 km/hRainLight Rain
2:40 PM26 °C26 °C100 %1011.2 hPa16.1 kmEast (80°)29.6 km/hRainLight Rain
2:45 PM25 °C25 °C100 %1010.8 hPa16.1 kmEast (80°)24.1 km/hRainLight Rain
2:55 PM25 °C25 °C100 %1010.8 hPa4.8 kmEast (80°)20.4 km/hRainLight Rain
2:58 PM25 °C25 °C100 %1009.8 hPa4.8 kmEast (80°)18.5 km/h0.76 mmRainLight Rain
3:13 PM25 °C24 °C94 %1010.8 hPa14.5 kmENE (70°)7.4 km/hRainLight Rain
3:18 PM25 °C24 °C94 %1010.8 hPa16.1 kmENE (60°)9.3 km/hRainLight Rain
3:38 PM25 °C24 °C94 %1010.8 hPa16.1 kmENE (70°)11.1 km/hPartly Cloudy
3:58 PM26 °C24 °C89 %1009.8 hPa16.1 kmENE (60°)11.1 km/h0.76 mmPartly Cloudy
4:58 PM25.8 °C25.7 °C99 %1010.2 hPa16.1 kmENE (70°)16.7 km/hScattered Clouds
5:03 PM26 °C26 °C100 %1011.2 hPa16.1 kmENE (70°)22.2 km/hMostly Cloudy
5:18 PM26 °C26 °C100 %1011.5 hPa16.1 kmEast (80°)18.5 km/hLight Drizzle
5:33 PM26 °C26 °C100 %1011.5 hPa16.1 kmENE (70°)16.7 km/hRainLight Rain
5:36 PM26 °C26 °C100 %1011.5 hPa16.1 kmENE (70°)14.8 km/hScattered Clouds
5:58 PM25.7 °C24.7 °C94 %1011.2 hPa16.1 kmEast (80°)16.7 km/h0 mmClear
6:58 PM26.2 °C25.2 °C94 %1011.2 hPa16.1 kmENE (70°)16.7 km/hMostly Cloudy
7:58 PM26.3 °C25.1 °C93 %1011.2 hPa16.1 kmENE (60°)18.5 km/hMostly Cloudy
8:58 PM26.2 °C25.2 °C94 %1011.2 hPa16.1 kmENE (60°)20.4 km/hPartly Cloudy
9:58 PM26.2 °C25.1 °C94 %1011.2 hPa16.1 kmENE (70°)16.7 km/hMostly Cloudy
10:58 PM26.2 °C24.5 °C90 %1011.2 hPa16.1 kmENE (70°)18.5 km/hScattered Clouds
11:58 PM26.1 °C24.9 °C93 %1011.2 hPa16.1 kmENE (70°)18.5 km/hMostly Cloudy
Hourly data recorded from PGUA, located 0 kilometers away from Umatac, Guam







STORIES FROM OUR PARTNERS